Hourly Data Report for November 27, 2018

TORONTO CITY
ONTARIO
Current Station Operator: ECCC - MSC

43°40'00.000" N
79°24'00.000" W
112.50 m
6158355
71508
XTO

Download Data

Hourly Data (November 2018)
Hourly Data Report for November 27, 2018
TIME
LST
Temp Definition
°C
Dew Point Definition
°C
Rel Hum Definition
%
Precip. Amount Definition
mm

Wind Dir Definition
10's deg

Wind Spd Definition
km/h
Visibility Definition
km
Stn Press Definition
kPa
Hmdx Definition


Wind Chill Definition


Weather Definition


00:00 2.5 0.9 90 0.2 LegendMM LegendMM   98.28     LegendNANA
01:00 2.2 0.7 89 0.3 LegendMM LegendMM   98.28     LegendNANA
02:00 2.7 1.0 89 0.3 LegendMM LegendMM   98.30     LegendNANA
03:00 2.6 0.4 85 0.2 LegendMM LegendMM   98.35     LegendNANA
04:00 2.3 -0.5 81 0.0 LegendMM LegendMM   98.37     LegendNANA
05:00 2.1 -1.2 79 0.0 LegendMM LegendMM   98.43     LegendNANA
06:00 1.6 -1.9 77 0.0 LegendMM LegendMM   98.47     LegendNANA
07:00 1.5 -2.3 76 0.0 LegendMM LegendMM   98.55     LegendNANA
08:00 1.2 -2.6 76 0.0 LegendMM LegendMM   98.59     LegendNANA
09:00 1.2 -2.8 75 0.0 LegendMM LegendMM   98.64     LegendNANA
10:00 1.9 -3.4 68 0.0 LegendMM LegendMM   98.70     LegendNANA
11:00 2.1 -4.2 63 0.0 LegendMM LegendMM   98.67     LegendNANA
12:00 2.1 -3.5 66 0.0 LegendMM LegendMM   98.66     LegendNANA
13:00 2.1 -3.4 67 0.0 LegendMM LegendMM   98.65     LegendNANA
14:00 1.7 -3.2 70 0.0 LegendMM LegendMM   98.66     LegendNANA
15:00 1.1 -3.1 73 0.0 LegendMM LegendMM   98.67     LegendNANA
16:00 0.7 -2.4 80 0.0 LegendMM LegendMM   98.71     LegendNANA
17:00 0.4 -2.3 82 0.0 LegendMM LegendMM   98.74     LegendNANA
18:00 0.3 -2.8 79 0.2 LegendMM LegendMM   98.78     LegendNANA
19:00 -0.4 -2.6 85 0.0 LegendMM LegendMM   98.80     LegendNANA
20:00 -0.7 -2.9 85 0.2 LegendMM LegendMM   98.80     LegendNANA
21:00 -0.8 -2.8 86 0.3 LegendMM LegendMM   98.79     LegendNANA
22:00 -0.7 -3.0 84 0.2 LegendMM LegendMM   98.79     LegendNANA
23:00 -0.5 -3.7 79 0.0 LegendMM LegendMM   98.79     LegendNANA

Notes on Data Quality.

Legend

  • E = Estimated
  • M = Missing
  • NA = Not Available*
  • [empty] = Indicates an unobserved value
Date modified: